Torna al catalogo

FENGYUN 1C DEB

AttivoSSO
NORAD 35180·DEBRIS·🇨🇳 China

Lanciato May 10, 1999 da Taiyuan Satellite Launch Center

Loading…

Prossimi Passaggi (prossime 24 ore)

TLE

In scadenzaSource: Space-Track

Epoca: Sep 7, 2026, 17:16 UTC

1 35180U 99025DNL 26250.71988923  .00002096  00000-0  89347-3 0  9995
2 35180  99.7566  63.5912 0481599  37.5480 325.8300 13.78149422 37350

Traccia FENGYUN 1C DEB in tempo reale con AllMySat

Download on the App Store